Regional Weather Roundup
Issued by NWS

Home | Current Version | Previous Version | Text Only | Print | Product List | Glossary Off
Versions: 1 2 3 4 5 6 7 8 9 10 11 12 13 14 15 16 17 18 19 20 21 22 23 24 25 26 27 28 29 30 31 32 33 34 35 36 37 38 39 40 41 42 43 44 45 46 47 48 49 50

000
ASUS43 KMPX 301510
RWRMN
WEATHER ROUNDUP FOR MINNESOTA
NATIONAL WEATHER SERVICE TWIN CITIES/CHANHASSEN MN
1000 AM CDT SUN APR 30 2017


NOTE: "FAIR" INDICATES FEW OR NO CLOUDS BELOW 12,000 FEET WITH NO
SIGNIFICANT WEATHER AND/OR OBSTRUCTIONS TO VISIBILITY. N/A MEANS
CURRENT SKY AND/OR WEATHER CONDITIONS ARE NOT AVAILABLE.

MNZ060>063-068>070-301600-
   Twin Cities Metro

CITY           SKY/WX    TMP DP  RH WIND       PRES   REMARKS
TWIN CITIES    LGT RAIN  43  29  57 NE14      30.01F
ST PAUL        LGT RAIN  42  31  64 NE8       30.03F
CRYSTAL        CLOUDY    44  24  45 NE12      30.01F
BLAINE         CLOUDY    46  28  49 NE12      30.01F
LAKEVILLE      LGT RAIN  37  34  87 NE14G21   29.98F
EDEN PRAIRIE   LGT RAIN  43  30  60 NE9       29.98F
SOUTH ST PAUL  DRIZZLE   42  31  67 NE7       30.01F
LAKE ELMO      LGT RAIN  41  32  70 NE8       30.03S
$$
MNZ001>005-007-008-013>017-022>024-027-028-301600-
   Northwest Minnesota

CITY           SKY/WX    TMP DP  RH WIND       PRES   REMARKS
BEMIDJI        MOSUNNY   46  21  37 E9        30.14S
HALLOCK        MOSUNNY   52  25  35 S15       30.12F
ROSEAU         MOSUNNY   50  28  43 S6        30.14F
WARROAD        CLOUDY    48  27  43 S8        30.16S
THIEF RVR FALL MOSUNNY   49  23  36 SE10      30.14F
CROOKSTON      MOSUNNY   52  23  32 SE8       30.14S
FOSSTON        SUNNY     48  18  29 E6        30.14F
DETROIT LAKES  PTSUNNY   45  19  36 E6        30.12S
MOORHEAD       CLOUDY    48  21  34 E6        30.12F
PARK RAPIDS    MOSUNNY   47  17  30 NE10      30.11F
MAHNOMEN       FAIR      49  22  34 E9        30.12F
$$
MNZ006-009>011-018-025>026-301600-
   North Central Minnesota

CITY           SKY/WX    TMP DP  RH WIND       PRES   REMARKS
BAUDETTE       MOSUNNY   48  19  31 SE7       30.17S
FLAG ISLAND    CLOUDY    39  30  70 SE6       30.17S
INTL FALLS     MOSUNNY   46  20  35 SE8       30.18S
WASKISH        CLOUDY    48  23  37 E5        30.16F
BIG FORK       SUNNY     50  21  32 E9        30.16R
LONGVILLE      PTSUNNY   46  19  34 E9        30.12F
GRAND RAPIDS   CLOUDY    45  19  35 VRB7      30.15R
CRANE LAKE     CLOUDY    46  19  34 CALM      30.20R
ORR            SUNNY     46  14  27 SE3       30.15R
COOK           MOSUNNY   46  19  34 E9        30.17R
WALKER         FAIR      43  21  42 E9        30.14S
$$
MNZ012-019>021-037-301600-
   Northeast Minnesota

CITY           SKY/WX    TMP DP  RH WIND       PRES   REMARKS
DULUTH         PTSUNNY   43  21  41 E15       30.12R
ELY            SUNNY     45  16  31 E12       30.17R
HIBBING        PTSUNNY   44  20  38 E13       30.14R
EVELETH        CLOUDY    45   9  22 E10       30.15R
DULUTH HARBOR  CLOUDY    39  34  81 NE16      30.15R
TWO HARBORS    CLOUDY    46  28  49 E12G17    30.12R
SILVER BAY     MOSUNNY   45  25  45 NE8       30.13R
GRAND MARAIS     N/A     42  29  59 NE12      30.18F
G MARAIS ARPRT CLOUDY    43  16  33 NE14      30.17R
$$
MNZ029>031-032-039>041-046>048-054>057-064-301600-
   West Central Minnesota

CITY           SKY/WX    TMP DP  RH WIND       PRES   REMARKS
FERGUS FALLS   CLOUDY    48  21  34 NE9       30.09F
WHEATON        MOSUNNY   48  21  34 NE9       30.08F
MORRIS         CLOUDY    46  23  39 NE13      30.04F
ALEXANDRIA     CLOUDY    44  21  40 NE10      30.07F
ELBOW LAKE     FAIR      46  23  40 NE9       30.07F
WADENA         PTSUNNY   45  21  39 NE12      30.08F
GLENWOOD       CLOUDY    43  21  42 NE14      30.06R
APPLETON       PTSUNNY   46  21  36 NE13G20   30.04F
BENSON         CLOUDY    46  14  27 E9        30.06S
ORTONVILLE     CLOUDY    45  27  49 NE14      30.04F
MADISON        CLOUDY    46  27  46 NE14      30.04F
WILLMAR        FAIR      43  25  49 NE12      30.04S
$$
MNZ033>034-036-042>043-049>051-058-059-301600-
   Central Minnesota

CITY           SKY/WX    TMP DP  RH WIND       PRES   REMARKS
ST CLOUD       CLOUDY    41  24  51 NE10      30.04F
SAUK CENTRE    FAIR      41  23  48 NE14      30.06S
PAYNESVILLE    CLOUDY    41  22  47 NE14      30.05R
AITKIN         PTSUNNY   45  16  31 NE8       30.08F
PINE RIVER     CLOUDY    45  25  45 NE9       30.14F
BRAINERD       PTSUNNY   41  21  44 NE13      30.09F
STAPLES        CLOUDY    43  19  39 NE9       30.08F
LONG PRAIRIE   FAIR      41  23  48 NE9       30.07S
LITTLE FALLS   CLOUDY    41  23  48 E6        30.08S
LITCHFIELD     CLOUDY    41  27  56 NE8       30.03R
BUFFALO        LGT RAIN  40  26  56 N10G16    30.03F
MAPLE LAKE     LGT RAIN  41  27  56 NE10      30.04S
HUTCHINSON     LGT RAIN  40  32  74 N9        30.02S
$$
MNZ037-044-045-052-053-301600-
   East Central Minnesota

CITY           SKY/WX    TMP DP  RH WIND       PRES   REMARKS
PRINCETON      CLOUDY    43  25  49 NE7       30.06F
MORA           CLOUDY    41  25  52 NE7       30.09F
CAMBRIDGE      PTSUNNY   43  27  52 N5        30.04F
RUSH CITY      CLOUDY    41  26  54 NE12      30.06F
MOOSE LAKE     CLOUDY    41  23  48 NE8       30.08F
HINCKLEY       CLOUDY    43  28  56 NE9       30.08F
CLOQUET        PTSUNNY   43  16  33 E15G21    30.11S
MCGREGOR       CLOUDY    43  23  45 NE6       30.11F
$$
MNZ071>073-080-081-089-090-097-098-301600-
   Southwest Minnesota

CITY           SKY/WX    TMP DP  RH WIND       PRES   REMARKS
MONTEVIDEO     CLOUDY    45  25  45 E15       30.04R
GRANITE FALLS  CLOUDY    44  28  52 N16       30.04S
CANBY          CLOUDY    45  28  51 E10       30.04F
MARSHALL       CLOUDY    42  27  55 E13       30.02S
REDWOOD FALLS  LGT RAIN  40  29  64 NE9       30.01R
OLIVIA         LGT RAIN  39  28  65 NE10G17   30.01S
PIPESTONE      LGT RAIN  37  30  75 NE13      29.96F
WINDOM         DRIZZLE   37  34  87 NE13      29.96R
WORTHINGTON    LGT RAIN  36  34  93 NE21      29.93F
JACKSON        CLOUDY    36  36 100 NE16G22   29.94R
TRACY          RAIN      39  34  81 NE14      30.00S
SLAYTON        LGT RAIN  35  33  90 NE10      29.99R WCI  28
$$
MNZ065>067-074>077-082>085-091>093-301600-
   South Central Minnesota

CITY           SKY/WX    TMP DP  RH WIND       PRES   REMARKS
MANKATO        LGT RAIN  40  34  79 NE15      29.97S
NEW ULM        LGT RAIN  41  34  75 NE12      29.98S
ST JAMES       LGT RAIN  39  36  87 NE13G21   29.97S
FAIRMONT       LGT RAIN  39  36  89 NE18      29.93F
GLENCOE        CLOUDY    42  33  68 N10G16    29.99F
FARIBAULT      CLOUDY    39  34  81 N10G21    29.96F
OWATONNA       CLOUDY    41  30  65 NE13      29.95S
WASECA         CLOUDY    39  32  75 NE14G20   29.97S
ALBERT LEA     MIX PCPN  39  30  70 NE15G23   29.94R
$$
MNZ078>079-086>088-094>096-301600-
   Southeast Minnesota

CITY           SKY/WX    TMP DP  RH WIND       PRES   REMARKS
ROCHESTER      CLOUDY    41  32  70 NE17      29.93S
RED WING       CLOUDY    45  27  49 E8G16     29.98S
STANTON        CLOUDY    42  33  68 NE15      29.96F
DODGE CENTER   CLOUDY    41  30  65 NE20G25     N/A
WINONA         LGT RAIN  43  32  65 E12       29.97S
AUSTIN         CLOUDY    43  32  65 E14G20    29.93R
PRESTON        CLOUDY    39  31  72 NE10G18   29.94R
$$
ABBREVIATIONS USED IN REMARKS
   TC - TEMPERATURES IN CELSIUS
  WCI - WIND CHILL INDEX
   HX - HEAT INDEX
  VSB - VISIBILITY
$$



USA.gov is the U.S. government's official web portal to all federal, state and local government web resources and services.